Wind_Speed
7 8 9 9 10 11 11 11 12 12 15 16 16 18 20 18 17 20 21 20 13 8 5 4 4 4 4 3 3 6 7 12 12 12 10 11 11 9 7 4 4 4 2 2 4 2 3
6 7 8 9 9 9 10 10 12 14 16 17 19 18 20 19 16 18 19 19 18 9 5 4 4 4 3 2 3 5 9 14 12 11 10 10 12 9 6 2 2 1 1 1 2 3 4
5 6 7 8 8 8 9 10 12 14 16 17 18 18 19 19 18 17 19 20 17 10 5 4 4 2 2 4 5 5 10 14 11 11 10 9 11 12 6 2 4 2 3 3 3 4 5
5 6 7 7 8 9 9 10 13 16 18 19 18 17 19 20 18 19 19 20 18 12 7 3 4 4 4 5 6 6 14 13 12 12 9 8 10 13 8 4 5 3 4 5 5 7 7
6 6 6 6 7 9 10 12 14 16 18 19 19 17 20 20 20 20 19 20 19 10 7 7 6 6 6 7 9 9 16 13 14 13 9 8 8 12 9 7 5 3 7 7 8 7 9
5 5 6 6 8 10 12 13 14 17 18 21 19 18 19 21 21 21 19 21 15 11 10 10 7 5 6 9 12 10 16 13 16 13 10 8 8 10 10 8 5 10 11 9 9 8 11
3 5 6 7 9 11 14 14 16 17 18 19 19 18 20 24 20 20 18 19 9 12 11 11 7 6 5 9 15 8 14 13 15 12 10 8 6 12 11 9 12 13 14 13 10 13 16
4 5 6 7 9 11 13 15 15 15 14 16 17 17 20 24 25 22 20 16 9 8 9 10 7 7 7 13 11 10 11 16 14 10 9 7 3 12 11 8 11 11 12 10 12 12 14
6 7 8 10 11 13 14 15 16 15 12 11 15 17 19 21 24 22 18 16 6 4 6 10 11 12 15 11 6 9 13 16 13 11 10 5 6 12 11 10 13 11 8 7 13 18 19
7 7 10 10 13 14 15 15 15 15 14 11 12 13 17 20 22 25 21 16 7 3 1 5 14 15 13 11 11 12 16 14 13 8 8 5 13 10 8 10 14 10 6 14 17 13 7
11 13 13 14 15 14 14 14 13 13 13 13 14 15 15 19 22 25 23 18 8 1 3 6 13 13 11 13 10 13 14 15 9 10 7 10 10 5 9 10 15 10 16 16 15 11 13
14 15 15 15 15 14 13 13 12 12 11 13 14 15 16 19 20 23 21 17 6 1 1 3 9 7 8 11 8 14 15 13 8 7 12 9 6 3 11 13 13 10 18 16 9 6 4
17 16 15 16 16 14 13 12 10 10 9 11 12 14 16 20 23 22 18 16 2 2 8 4 9 8 9 12 9 16 17 12 14 10 17 10 5 5 8 16 11 17 14 5 3 1 4
17 16 16 17 15 13 12 10 9 7 8 9 12 15 18 20 20 20 18 14 1 2 3 7 10 8 8 12 9 16 15 9 13 14 14 13 4 11 12 15 15 9 9 4 5 3 5
18 17 16 15 14 13 10 9 7 7 7 10 14 17 19 21 20 19 16 6 3 5 7 9 10 5 6 12 12 13 11 6 11 11 14 8 6 14 6 13 11 7 5 9 6 9 4
19 17 16 14 12 11 9 8 7 9 10 12 15 17 19 19 18 16 11 4 5 7 8 9 7 6 11 14 12 15 8 5 7 12 15 11 12 6 8 15 9 9 8 4 4 4 5
19 18 15 13 11 10 9 8 9 10 11 14 15 18 18 17 16 10 5 6 6 7 8 9 10 8 10 13 16 11 4 10 6 14 17 14 5 12 14 13 15 7 4 3 5 6 3
19 18 16 14 12 10 10 10 10 11 12 14 16 17 16 16 12 7 7 9 9 7 9 9 10 9 9 14 12 9 7 12 12 19 15 11 11 14 26 13 7 4 4 6 3 5 10
19 18 16 14 13 12 11 11 11 12 14 16 16 16 15 15 6 11 11 11 9 9 10 13 8 9 11 12 10 9 12 14 20 16 17 17 7 12 9 2 5 9 16 16 18 20 21
21 19 17 16 14 13 12 11 13 14 15 15 16 15 15 11 12 13 12 10 10 10 12 11 9 9 10 11 9 12 17 13 22 24 24 24 20 19 20 23 25 32 32 30 27 25 27
23 21 19 18 17 15 14 14 14 14 14 14 15 14 14 14 15 14 14 12 10 11 11 12 10 11 12 11 17 10 21 25 23 25 19 21 23 24 30 28 30 37 36 31 33 36 32
25 23 22 21 20 18 18 17 15 14 15 16 17 17 15 16 15 16 16 15 15 12 14 16 13 12 18 18 14 22 23 24 26 26 26 30 21 26 40 33 22 32 36 29 22 25 33
27 26 25 23 22 21 19 19 18 17 16 16 16 17 18 18 19 19 19 15 16 17 16 16 17 19 20 19 19 23 22 26 29 30 30 32 29 23 16 20 25 25 6 13 18 21 21
29 28 27 25 24 23 22 21 21 20 20 21 21 21 21 22 19 18 22 20 18 19 20 20 21 22 21 23 26 22 24 23 22 19 22 28 27 20 21 25 3 15 29 32 30 21 23
31 30 29 28 27 25 25 24 23 24 25 24 24 24 26 31 27 20 21 23 21 20 24 23 18 20 18 20 24 24 23 14 15 16 15 19 21 15 9 12 33 30 13 14 20 26 26
35 32 32 30 28 27 26 26 25 25 26 27 24 24 27 32 37 30 29 27 27 21 25 22 21 18 18 20 21 16 10 19 8 12 12 16 21 24 15 8 6 24 26 29 28 30 8
37 36 36 34 33 32 30 30 31 32 30 29 27 26 29 35 38 36 34 25 29 27 30 29 25 25 21 24 27 25 21 21 12 13 15 21 18 28 33 16 22 24 20 22 11 21 22
37 38 38 38 38 38 38 36 36 32 34 34 33 32 34 36 40 35 35 43 26 32 28 28 30 25 27 18 22 24 14 17 22 23 25 30 15 18 14 12 17 26 24 25 36 37 38
41 41 43 41 43 39 36 37 30 32 36 35 34 28 30 34 42 39 41 33 30 26 27 35 35 35 31 23 21 17 37 39 38 42 38 26 30 27 29 31 45 46 48 46 43 39 39
Wind_Direction
73 65 64 65 62 58 51 47 37 30 20 15 9 3 9 5 7 10 14 18 14 11 358 358 353 348 336 350 12 358 360 358 359 1 2 7 18 14 25 33 46 62 108 79 51 9 21
56 54 56 59 55 48 41 34 25 16 11 9 5 1 359 2 1 6 9 11 13 7 21 28 1 340 327 353 11 0 357 358 357 360 358 2 13 15 12 7 9 120 265 33 21 9 2
56 56 56 56 46 40 33 23 13 8 5 3 1 359 357 0 1 4 4 6 3 360 350 349 12 59 44 45 15 5 356 358 358 356 355 356 8 13 17 297 322 247 250 278 311 333 321
51 60 58 44 29 22 19 13 3 0 0 0 3 2 2 3 8 2 4 3 5 3 360 31 81 82 58 41 18 359 355 2 357 352 351 347 359 10 20 337 315 226 246 273 279 297 311
59 54 42 32 22 11 6 1 0 2 3 6 11 13 12 12 3 2 1 5 9 27 58 76 91 90 57 33 12 355 355 356 353 349 345 341 348 7 6 338 321 298 296 284 292 283 293
44 33 27 19 10 3 360 358 358 360 6 9 17 30 23 15 9 9 9 10 16 56 77 79 86 72 37 14 357 345 351 351 348 346 344 339 344 360 0 4 344 315 326 293 293 301 294
10 6 3 5 3 0 355 352 355 0 9 16 27 36 29 23 18 14 14 16 46 73 79 81 77 51 21 359 342 337 346 352 349 348 348 343 348 357 5 1 346 328 319 300 297 290 291
327 331 338 346 345 341 344 344 345 353 1 9 18 19 21 21 19 15 15 15 56 84 82 62 46 22 359 337 344 348 352 351 348 351 351 344 351 351 352 352 349 329 318 313 311 312 294
308 320 323 327 333 333 333 336 340 340 343 357 8 8 10 15 16 13 10 13 38 112 81 51 31 10 360 5 34 5 353 350 354 354 350 354 349 343 345 343 344 333 297 316 310 305 298
276 294 313 308 323 326 323 329 335 333 331 333 338 351 355 360 4 10 7 9 19 196 97 30 15 6 21 17 11 1 356 358 354 0 355 344 338 339 337 336 339 338 319 299 303 295 287
281 286 296 298 311 318 319 324 328 324 324 334 335 332 341 350 357 360 0 3 7 69 42 4 3 7 14 9 3 359 357 358 6 354 358 335 336 348 340 331 330 312 321 307 302 277 276
281 286 289 296 307 314 313 315 318 313 315 325 331 331 332 340 346 351 355 357 0 347 48 338 360 359 3 7 12 5 6 10 11 2 352 350 347 343 353 344 336 320 324 311 292 274 269
282 291 282 298 304 309 311 311 309 308 311 319 328 331 332 337 340 345 349 349 333 69 328 328 345 346 352 5 6 6 5 21 22 9 355 3 344 339 353 354 343 335 338 323 341 334 240
281 286 285 293 298 302 305 307 305 307 313 319 322 326 329 332 335 339 342 346 324 330 333 320 331 331 345 358 355 359 1 20 16 12 348 348 351 335 332 356 339 347 357 19 301 301 294
281 283 283 287 293 297 301 302 300 296 301 310 317 323 327 328 330 333 340 345 344 324 324 328 327 326 339 347 346 349 353 8 3 7 6 336 302 323 302 338 337 338 341 323 275 275 289
278 278 278 281 286 288 287 287 292 300 308 314 319 324 329 329 332 336 344 4 335 316 317 326 334 315 328 335 343 342 351 335 351 347 345 326 307 321 319 323 324 315 313 314 320 317 300
274 273 272 270 269 270 273 280 290 300 310 319 326 329 335 334 335 347 14 352 337 324 316 321 318 307 314 329 332 337 325 330 330 332 331 327 296 310 315 312 310 291 270 255 283 265 257
265 266 266 264 261 257 264 276 288 300 311 318 325 331 332 337 340 3 348 344 331 319 315 319 315 307 309 327 331 324 323 315 319 323 326 321 300 289 314 298 275 244 289 263 254 283 261
254 256 257 254 256 260 268 277 288 302 311 317 324 330 333 338 346 347 342 334 323 321 320 320 311 309 321 341 335 318 311 314 310 316 315 314 294 309 313 258 265 265 294 288 285 278 257
249 249 249 250 251 257 262 273 293 304 312 318 328 331 329 334 333 336 337 335 326 317 319 327 319 317 321 326 321 307 317 308 305 307 306 292 280 269 264 286 293 288 289 285 281 271 264
241 241 243 245 250 253 258 269 283 291 300 308 317 319 319 311 319 324 327 325 319 306 311 319 312 308 312 310 309 306 313 312 317 308 307 303 285 288 292 290 291 291 289 287 277 280 260
239 236 236 241 245 248 257 267 276 284 295 302 306 308 306 305 308 311 314 317 314 307 306 304 301 294 301 304 308 302 306 312 308 313 310 308 292 296 298 304 298 295 300 290 280 284 277
237 239 240 241 246 253 262 270 275 281 287 293 301 303 303 303 301 303 305 310 306 303 303 303 300 297 303 309 301 300 302 305 300 295 294 289 286 293 289 304 305 300 335 298 295 298 293
235 236 241 245 249 254 260 268 274 279 285 292 296 295 294 292 292 293 295 300 299 299 299 299 300 300 305 302 303 306 309 310 304 293 278 270 273 282 283 304 281 308 303 297 293 297 297
241 242 242 244 247 253 260 265 272 279 284 287 289 292 295 295 293 290 293 292 292 297 297 299 299 301 299 310 314 321 325 328 313 300 298 281 262 255 261 272 294 312 308 303 299 302 302
240 242 247 250 252 254 258 261 266 272 278 282 282 285 291 293 289 297 293 292 297 296 298 302 308 304 302 309 308 302 301 300 298 298 281 269 260 240 252 260 259 303 300 305 307 310 323
243 244 245 251 254 255 256 262 262 265 270 271 274 284 285 282 290 281 296 281 293 295 294 304 306 305 296 306 288 291 280 280 276 265 289 291 265 243 253 252 276 283 286 292 284 306 296
245 248 249 251 253 253 256 259 262 266 278 281 276 275 277 281 284 282 272 279 277 289 285 293 293 293 290 273 296 277 268 296 272 276 298 284 261 268 265 237 270 294 277 282 299 300 300
250 256 251 250 253 250 251 253 267 281 282 277 273 275 277 275 278 283 282 284 269 280 274 280 279 285 275 275 300 263 295 290 284 286 293 262 274 274 274 276 288 288 286 298 296 301 304
Height
3195 3195 3194 3193 3192 3191 3190 3189 3187 3186 3184 3181 3178 3175 3172 3169 3165 3162 3159 3156 3153 3151 3150 3149 3149 3149 3147 3147 3146 3144 3144 3142 3140 3138 3135 3133 3131 3130 3128 3127 3127 3126 3126 3126 3126 3125 3124
3197 3196 3195 3195 3193 3193 3192 3190 3188 3186 3184 3181 3178 3175 3172 3169 3166 3163 3160 3156 3153 3151 3150 3149 3148 3148 3147 3147 3146 3145 3144 3143 3140 3138 3136 3134 3132 3130 3128 3127 3127 3126 3125 3125 3125 3123 3122
3198 3198 3197 3196 3195 3194 3193 3192 3190 3187 3185 3182 3179 3175 3172 3169 3166 3163 3159 3156 3153 3150 3149 3148 3148 3147 3148 3149 3146 3146 3145 3143 3140 3138 3136 3134 3133 3131 3129 3127 3126 3125 3124 3123 3123 3122 3121
3199 3199 3198 3197 3197 3195 3194 3193 3190 3188 3185 3182 3179 3175 3172 3168 3165 3162 3159 3156 3152 3149 3148 3148 3148 3149 3149 3148 3148 3147 3145 3142 3140 3138 3136 3134 3133 3132 3130 3128 3127 3126 3127 3126 3124 3122 3121
3200 3199 3199 3198 3198 3196 3195 3193 3191 3188 3185 3181 3178 3175 3171 3168 3165 3162 3158 3155 3151 3149 3148 3149 3150 3150 3150 3150 3149 3146 3144 3142 3140 3138 3136 3135 3135 3133 3132 3130 3129 3128 3126 3125 3124 3122 3121
3201 3200 3200 3199 3198 3197 3196 3194 3191 3189 3185 3181 3178 3175 3172 3169 3165 3161 3158 3154 3152 3150 3150 3150 3151 3153 3152 3150 3148 3146 3144 3142 3140 3137 3136 3135 3134 3133 3131 3130 3129 3126 3125 3124 3123 3123 3120
3201 3201 3200 3199 3198 3197 3195 3193 3191 3188 3185 3183 3179 3176 3174 3170 3166 3162 3159 3156 3156 3154 3153 3152 3153 3152 3151 3150 3147 3145 3143 3142 3139 3137 3135 3134 3134 3132 3130 3129 3128 3127 3125 3122 3121 3119 3116
3201 3200 3200 3199 3198 3196 3195 3192 3191 3188 3185 3183 3180 3177 3174 3170 3166 3162 3159 3158 3155 3156 3154 3154 3153 3152 3151 3149 3147 3145 3144 3142 3138 3136 3134 3134 3132 3131 3129 3128 3126 3124 3122 3121 3119 3117 3115
3200 3199 3199 3198 3197 3195 3193 3192 3190 3188 3186 3184 3181 3178 3175 3172 3168 3165 3160 3158 3155 3155 3155 3155 3154 3153 3150 3148 3146 3145 3143 3139 3137 3134 3133 3132 3132 3130 3128 3126 3125 3122 3120 3118 3117 3114 3112
3198 3197 3197 3196 3195 3194 3192 3190 3189 3186 3184 3183 3181 3178 3176 3173 3171 3165 3162 3158 3156 3154 3155 3157 3154 3153 3151 3148 3147 3144 3141 3140 3136 3134 3132 3132 3131 3129 3127 3125 3123 3119 3117 3115 3114 3112 3111
3197 3196 3195 3194 3193 3192 3190 3188 3187 3185 3183 3181 3179 3177 3175 3171 3168 3165 3162 3158 3155 3155 3157 3158 3155 3153 3150 3150 3148 3145 3141 3138 3135 3134 3134 3133 3130 3128 3127 3125 3122 3121 3117 3114 3111 3109 3108
3195 3194 3193 3192 3191 3190 3188 3186 3184 3183 3181 3179 3177 3175 3173 3171 3167 3164 3160 3157 3156 3157 3155 3156 3154 3152 3150 3148 3146 3144 3141 3139 3136 3134 3132 3131 3129 3128 3127 3125 3122 3119 3116 3112 3109 3108 3106
3192 3191 3190 3190 3189 3188 3186 3184 3183 3181 3179 3177 3176 3174 3172 3170 3167 3163 3159 3157 3156 3153 3157 3156 3153 3150 3149 3147 3145 3143 3141 3139 3137 3134 3131 3130 3129 3128 3127 3125 3121 3119 3116 3111 3112 3110 3105
3189 3188 3188 3187 3186 3185 3184 3182 3181 3180 3178 3176 3175 3173 3171 3168 3164 3161 3158 3157 3154 3154 3153 3153 3151 3150 3149 3147 3145 3143 3140 3139 3137 3136 3133 3131 3129 3129 3127 3125 3122 3119 3119 3119 3118 3113 3106
3186 3185 3185 3184 3183 3183 3181 3180 3179 3178 3177 3175 3173 3171 3169 3166 3162 3159 3158 3155 3155 3154 3154 3152 3150 3148 3149 3147 3146 3143 3141 3139 3138 3137 3136 3132 3129 3127 3125 3123 3122 3119 3119 3118 3115 3109 3107
3182 3182 3181 3181 3181 3180 3179 3178 3177 3177 3176 3174 3172 3169 3167 3163 3160 3158 3157 3156 3155 3154 3153 3152 3151 3150 3148 3146 3145 3143 3141 3140 3138 3136 3134 3132 3127 3124 3123 3121 3120 3119 3119 3117 3114 3111 3107
3179 3178 3178 3178 3177 3177 3177 3176 3175 3174 3173 3172 3169 3167 3164 3161 3158 3157 3156 3156 3154 3153 3153 3152 3150 3149 3147 3146 3143 3141 3140 3139 3136 3135 3133 3129 3127 3124 3121 3118 3116 3115 3115 3115 3115 3113 3110
3174 3175 3175 3174 3174 3174 3174 3173 3173 3172 3171 3169 3167 3165 3162 3160 3159 3156 3155 3154 3153 3151 3151 3150 3148 3146 3145 3143 3141 3140 3140 3139 3137 3134 3131 3129 3124 3119 3117 3113 3112 3113 3112 3113 3113 3111 3108
3169 3170 3171 3171 3172 3172 3172 3172 3171 3170 3169 3167 3165 3163 3161 3159 3157 3156 3155 3153 3152 3150 3149 3147 3146 3145 3144 3144 3143 3141 3140 3138 3135 3133 3130 3127 3122 3118 3113 3113 3111 3109 3108 3108 3107 3105 3099
3164 3165 3166 3168 3168 3168 3169 3169 3169 3168 3167 3166 3164 3162 3160 3157 3156 3155 3153 3152 3151 3149 3148 3146 3145 3144 3143 3142 3141 3139 3137 3134 3132 3129 3127 3124 3118 3117 3112 3110 3109 3104 3101 3100 3101 3096 3090
3158 3160 3162 3163 3164 3165 3165 3165 3164 3163 3163 3162 3161 3160 3158 3156 3154 3152 3151 3150 3149 3147 3146 3144 3142 3141 3140 3138 3136 3135 3133 3130 3127 3124 3122 3120 3113 3110 3105 3102 3100 3093 3088 3089 3088 3083 3087
3153 3154 3156 3158 3159 3160 3160 3160 3160 3160 3159 3159 3158 3157 3156 3155 3153 3151 3149 3148 3146 3145 3144 3142 3140 3138 3136 3134 3134 3129 3128 3125 3122 3119 3117 3115 3108 3103 3097 3095 3091 3082 3078 3078 3077 3074 3070
3148 3150 3151 3153 3154 3155 3155 3155 3155 3155 3154 3154 3153 3152 3152 3152 3150 3149 3147 3144 3143 3142 3141 3138 3137 3134 3132 3131 3128 3126 3123 3121 3118 3113 3112 3111 3107 3103 3092 3088 3085 3074 3070 3071 3070 3068 3065
3141 3143 3146 3147 3148 3149 3150 3151 3150 3150 3149 3148 3148 3148 3147 3146 3146 3146 3143 3142 3141 3139 3138 3136 3133 3130 3129 3126 3123 3121 3117 3115 3112 3109 3107 3104 3104 3104 3092 3087 3083 3072 3068 3066 3063 3063 3061
3136 3139 3140 3141 3142 3143 3144 3145 3145 3144 3143 3143 3142 3141 3138 3134 3138 3142 3139 3137 3135 3134 3132 3130 3130 3126 3123 3122 3117 3112 3109 3107 3106 3103 3103 3100 3100 3099 3095 3083 3069 3062 3061 3061 3058 3054 3054
3128 3131 3134 3135 3136 3136 3137 3137 3138 3138 3136 3136 3137 3135 3133 3130 3125 3131 3132 3132 3129 3128 3127 3125 3124 3122 3120 3117 3115 3111 3106 3102 3100 3098 3097 3097 3095 3094 3090 3085 3073 3061 3058 3056 3054 3047 3047
3120 3123 3125 3127 3128 3129 3129 3130 3131 3131 3130 3129 3129 3131 3128 3124 3119 3122 3121 3123 3124 3124 3121 3119 3119 3117 3115 3112 3109 3107 3102 3101 3096 3092 3091 3091 3087 3083 3080 3078 3062 3056 3054 3053 3052 3049 3042
3111 3114 3117 3120 3121 3122 3122 3122 3123 3123 3123 3122 3122 3122 3121 3117 3112 3112 3115 3115 3115 3117 3116 3114 3114 3108 3108 3105 3103 3100 3094 3093 3088 3085 3085 3084 3081 3075 3072 3070 3059 3050 3048 3047 3043 3037 3035
3102 3105 3107 3110 3111 3112 3111 3112 3112 3113 3114 3113 3111 3114 3113 3109 3103 3102 3103 3105 3107 3108 3109 3106 3105 3106 3102 3097 3098 3093 3091 3087 3082 3075 3073 3072 3071 3069 3066 3056 3049 3045 3040 3035 3032 3030 3027